This is the latest recevied weather packets stored in our database for station/object KF0EZB. If no packets are shown the sender has not sent any weather packets the latest 10 day(s).
| Time | Temp. | Humidity | Pressure | Rain* | Wind** | Luminosity | Snow |
|---|---|---|---|---|---|---|---|
| 1777733916 | 12.78° C | 43% | 1022.5 hPa | 0 mm | - | 525 W/m² | - |
| 1777733613 | 12.78° C | 45% | 1022.5 hPa | 0 mm | - | 516 W/m² | - |
| 1777733309 | 12.22° C | 44% | 1022.7 hPa | 0 mm | - | 514 W/m² | - |
| 1777733007 | 11.67° C | 45% | 1022.6 hPa | 0 mm | - | 583 W/m² | - |
| 1777732702 | 12.22° C | 45% | 1022.5 hPa | 0 mm | - | 542 W/m² | - |
| 1777732399 | 11.67° C | 46% | 1022.8 hPa | 0 mm | - | 470 W/m² | - |
| 1777732097 | 11.67° C | 46% | 1022.5 hPa | 0 mm | - | 437 W/m² | - |
| 1777731794 | 11.67° C | 47% | 1022.7 hPa | 0 mm | - | 396 W/m² | - |
| 1777731491 | 11.11° C | 50% | 1022.5 hPa | 0 mm | - | 362 W/m² | - |
| 1777731189 | 10.56° C | 54% | 1022.7 hPa | 0 mm | - | 350 W/m² | - |
| 1777730886 | 10.56° C | 55% | 1022.5 hPa | 0 mm | - | 358 W/m² | - |
| 1777730584 | 10° C | 56% | 1022.7 hPa | 0 mm | - | 321 W/m² | - |
| 1777730280 | 10° C | 55% | 1022.6 hPa | 0 mm | - | 280 W/m² | - |
| 1777729977 | 9.44° C | 56% | 1022.4 hPa | 0 mm | - | 296 W/m² | - |
| 1777729673 | 9.44° C | 58% | 1022.3 hPa | 0 mm | - | 267 W/m² | - |
| 1777729370 | 9.44° C | 58% | 1022.4 hPa | 0 mm | - | 253 W/m² | - |
| 1777729066 | 8.89° C | 60% | 1022.4 hPa | 0 mm | - | 247 W/m² | - |
| 1777728763 | 8.89° C | 61% | 1022.3 hPa | 0 mm | - | 219 W/m² | - |
| 1777728460 | 8.89° C | 62% | 1022.3 hPa | 0 mm | - | 193 W/m² | - |
| 1777728157 | 8.33° C | 64% | 1022.3 hPa | 0 mm | - | 186 W/m² | - |
| 1777727854 | 7.78° C | 67% | 1022.4 hPa | 0 mm | - | 157 W/m² | - |
| 1777727551 | 7.78° C | 70% | 1021.9 hPa | 0 mm | - | 147 W/m² | - |
| 1777727248 | 7.78° C | 73% | 1022.4 hPa | 0 mm | - | 135 W/m² | - |
| 1777726946 | 7.22° C | 75% | 1022 hPa | 0 mm | - | 118 W/m² | - |
| 1777726642 | 7.22° C | 76% | 1021.8 hPa | 0 mm | - | 102 W/m² | - |
* Rain latest hour (hover to see other rain measurements)
** Current wind speed in m/s (hover to see current wind gust speed)